User: anonymous   Login
Location: Newark
(48.9886°N, 1.2358°E)
Time: 21:42:07
(UTC+00:00)
Language:

Tiros 1 - Orbit

View from above orbital plane
View from above orbital plane
View from above satellite
View from above satellite

Ground track
Ground track

The orbit data is extracted from the following two-line orbital elements,

1    29U 60002B   19325.18595192 -.00000124  00000-0  12634-4 0  9997
2    29  48.3789 216.1961 0023770  56.2878 304.0295 14.74329301187781
Epoch (UTC): 21 November 2019 04:27:46
Eccentricity: 0.0023770
inclination: 48.3789°
perigee height: 630 km
apogee height: 664 km
right ascension of ascending node: 216.1961°
argument of perigee: 56.2878°
revolutions per day: 14.74329301
mean anomaly at epoch: 304.0295°
orbit number at epoch: 18778

The dashed part of the orbit path shows where the satellite is in the earth's shadow,  

DLR